KJ4PVX-11 Weather Reports


Display with metric or nautical units.
time (UTC)temp
F
wind
direction
speed
MPH
gust
MPH
rain 1hr
in
rain 24hr
in
rain mn
in
humidity
%
barometer
mb
20230127141040 37 249 1.0 2.0 0.00 0.00 0.00 74 1017.3
20230127140016 37 245 1.0 2.0 0.00 0.00 0.00 76 1017.3
20230127135024 36 232 1.0 1.0 0.00 0.00 0.00 77 1017.2
20230127134049 35 263 1.0 1.0 0.00 0.00 0.00 80 1016.9
20230127133030 34 0.0 0.0 0.00 0.00 0.00 84 1016.6
20230127132032 32 0.0 0.0 0.00 0.00 0.00 87 1016.5
20230127131017 32 0.0 0.0 0.00 0.00 0.00 88 1016.4
20230127130020 32 0.0 0.0 0.00 0.00 0.00 88 1016.2
20230127125022 31 0.0 0.0 0.00 0.00 0.00 88 1016.0
20230127124025 31 0.0 0.0 0.00 0.00 0.00 89 1015.7
20230127123028 31 0.0 0.0 0.00 0.00 0.00 88 1015.5
20230127122031 31 0.0 0.0 0.00 0.00 0.00 90 1015.4
20230127121015 31 0.0 0.0 0.00 0.00 0.00 88 1015.3
20230127120019 31 0.0 0.0 0.00 0.00 0.00 85 1015.1
20230127115020 31 0.0 0.0 0.00 0.00 0.00 84 1015.0
20230127114103 32 0.0 0.0 0.00 0.00 0.00 84 1014.6
20230127113025 32 0.0 0.0 0.00 0.00 0.00 81 1014.3
20230127112023 32 0.0 0.0 0.00 0.00 0.00 80 1014.2
20230127111059 33 0.0 0.0 0.00 0.00 0.00 78 1014.0
20230127110015 33 191 0.0 1.0 0.00 0.00 0.00 77 1013.8
20230127105019 33 270 0.0 1.0 0.00 0.00 0.00 76 1013.8
20230127104022 33 232 0.0 1.0 0.00 0.00 0.00 76 1013.5
20230127103044 34 225 0.0 1.0 0.00 0.00 0.00 75 1013.3
20230127102028 34 225 1.0 1.0 0.00 0.00 0.00 75 1013.2
20230127101030 34 225 0.0 1.0 0.00 0.00 0.00 75 1013.2
20230127100032 34 297 1.0 2.0 0.00 0.00 0.00 75 1012.9
20230127095016 33 248 1.0 2.0 0.00 0.00 0.00 77 1013.1
20230127094018 33 307 0.0 1.0 0.00 0.00 0.00 79 1013.3
20230127093042 32 338 0.0 1.0 0.00 0.00 0.00 83 1013.2
20230127092025 33 270 0.0 1.0 0.00 0.00 0.00 85 1013.1
20230127091027 33 225 0.0 1.0 0.00 0.00 0.00 83 1013.1
20230127090030 33 210 0.0 1.0 0.00 0.00 0.00 82 1013.2
20230127085032 33 203 0.0 1.0 0.00 0.00 0.00 82 1013.0
20230127084017 34 228 1.0 1.0 0.00 0.00 0.00 82 1013.0
20230127083021 33 238 1.0 1.0 0.00 0.00 0.00 84 1013.1
20230127082022 33 244 1.0 2.0 0.00 0.00 0.00 83 1013.2
20230127081019 33 214 0.0 1.0 0.00 0.00 0.00 83 1013.2
20230127080056 33 0.0 0.0 0.00 0.00 0.00 84 1013.1
20230127075051 28 236 0.0 1.0 0.00 0.00 0.00 84 1013.1
20230127074015 35 256 1.0 1.0 0.00 0.00 0.00 80 1013.0
20230127073018 35 180 0.0 1.0 0.00 0.00 0.00 80 1012.7
20230127072020 35 225 0.0 1.0 0.00 0.00 0.00 82 1012.7
20230127071023 35 238 1.0 1.0 0.00 0.00 0.00 79 1012.8
20230127070026 35 215 1.0 2.0 0.00 0.00 0.00 79 1012.7
20230127065028 35 236 1.0 2.0 0.00 0.00 0.00 79 1012.4
20230127064032 36 248 0.0 1.0 0.00 0.00 0.00 80 1012.3
20230127063015 36 263 0.0 1.0 0.00 0.00 0.00 79 1012.2
20230127062020 36 219 1.0 1.0 0.00 0.00 0.00 78 1012.1
20230127061022 36 212 1.0 1.0 0.00 0.00 0.00 77 1012.1
20230127060024 36 218 0.0 1.0 0.00 0.00 0.00 78 1011.9
20230127055026 35 208 0.0 1.0 0.00 0.00 0.00 79 1011.7
20230127054030 34 226 0.0 1.0 0.00 0.00 0.00 81 1011.3
20230127053026 34 0.0 0.0 0.00 0.00 0.00 85 1011.4
20230127052038 34 0.0 0.0 0.00 0.00 0.00 86 1011.3
20230127051019 33 270 0.0 1.0 0.00 0.00 0.00 89 1011.3
20230127050016 34 225 0.0 1.0 0.00 0.00 0.00 89 1011.2
20230127045025 34 214 0.0 1.0 0.00 0.00 0.00 93 1011.2
20230127044027 34 0.0 0.0 0.00 0.00 0.00 93 1011.1
20230127043030 34 0.0 0.0 0.00 0.00 0.00 91 1010.9
20230127042032 34 0.0 0.0 0.00 0.00 0.00 83 1010.7
20230127041017 35 0.0 0.0 0.00 0.02 0.00 79 1010.6
20230127040020 36 195 0.0 1.0 0.00 0.02 0.00 77 1010.6
20230127035038 36 0.0 0.0 0.00 0.05 0.00 77 1010.7
20230127034020 36 0.0 0.0 0.00 0.05 0.00 79 1010.5
20230127033023 36 0.0 0.0 0.00 0.10 0.00 79 1010.6
20230127032026 37 0.0 0.0 0.00 0.11 0.00 78 1010.6
20230127031030 37 248 0.0 1.0 0.00 0.11 0.00 77 1010.6
20230127030032 37 263 0.0 1.0 0.00 0.11 0.00 75 1010.6
20230127025017 37 241 1.0 3.0 0.00 0.11 0.00 75 1010.5
20230127024018 37 245 1.0 1.0 0.00 0.12 0.00 76 1010.1
20230127023021 38 0.0 0.0 0.00 0.12 0.00 75 1010.0
20230127022044 38 0.0 0.0 0.00 0.12 0.00 75 1010.0
20230127021027 39 0.0 0.0 0.00 0.12 0.00 73 1010.0
20230127020029 40 0.0 0.0 0.00 0.12 0.00 70 1009.9
20230127015026 41 0.0 0.0 0.00 0.12 0.00 69 1009.9
20230127014017 41 248 0.0 1.0 0.00 0.12 0.00 67 1010.0
20230127013019 41 229 0.0 2.0 0.00 0.12 0.00 67 1009.7
20230127012016 41 242 1.0 2.0 0.00 0.12 0.00 66 1009.4
20230127011024 41 273 1.0 3.0 0.00 0.12 0.00 64 1009.3
20230127010027 41 284 2.0 4.0 0.00 0.12 0.00 66 1009.3
20230127005030 41 249 1.0 2.0 0.00 0.12 0.00 67 1009.1
20230127004032 41 261 1.0 2.0 0.00 0.12 0.00 71 1009.1
20230127003018 41 248 0.0 1.0 0.00 0.13 0.00 71 1008.9
20230127002019 42 293 0.0 1.0 0.00 0.13 0.00 68 1008.8
20230127001022 42 180 0.0 1.0 0.00 0.13 0.00 68 1008.8
20230127000106 43 257 1.0 2.0 0.00 0.13 0.00 66 1008.4
20230126235028 43 216 1.0 2.0 0.00 0.13 0.00 69 1008.3
20230126234050 43 245 1.0 1.0 0.00 0.13 0.00 68 1008.2
20230126233056 44 269 1.0 2.0 0.00 0.14 0.00 67 1008.0
20230126232018 44 252 1.0 1.0 0.00 0.15 0.00 66 1007.9
20230126231022 44 116 1.0 2.0 0.00 0.15 0.00 68 1007.7
20230126230023 44 203 1.0 2.0 0.00 0.16 0.00 70 1007.6
20230126225046 44 0.0 1.0 0.00 0.17 0.00 73 1007.3
20230126224023 44 234 1.0 1.0 0.00 0.17 0.00 72 1007.0
20230126223020 44 304 0.0 1.0 0.00 0.18 0.00 70 1006.8
20230126222016 45 262 1.0 2.0 0.00 0.19 0.00 69 1006.6
20230126221020 45 221 0.0 1.0 0.00 0.20 0.00 69 1006.5
20230126220022 46 231 1.0 1.0 0.00 0.22 0.00 67 1006.4
20230126215026 46 223 1.0 3.0 0.00 0.24 0.00 67 1006.3
20230126214027 46 236 1.0 2.0 0.00 0.27 0.00 65 1006.3
20230126213030 46 236 1.0 3.0 0.00 0.29 0.00 66 1006.2
20230126212033 46 236 1.0 2.0 0.00 0.30 0.00 64 1006.1
20230126211018 46 320 1.0 2.0 0.00 0.31 0.00 64 1006.1
20230126210020 47 203 0.0 1.0 0.00 0.33 0.00 65 1005.7
20230126205022 47 248 1.0 2.0 0.00 0.35 0.00 64 1005.7
20230126204025 48 0.0 0.0 0.00 0.37 0.00 62 1005.3
20230126203027 48 232 1.0 2.0 0.00 0.38 0.00 60 1005.2
20230126202030 49 231 1.0 2.0 0.00 0.40 0.00 61 1005.0
20230126201033 48 245 1.0 2.0 0.00 0.42 0.00 60 1004.8
20230126200017 48 272 1.0 4.0 0.00 0.43 0.00 60 1004.7
20230126195020 48 275 1.0 3.0 0.00 0.45 0.00 60 1004.8
20230126194023 49 292 2.0 3.0 0.00 0.47 0.00 61 1004.6
20230126193020 49 251 2.0 7.0 0.00 0.48 0.00 59 1004.5
20230126192016 49 241 2.0 3.0 0.00 0.51 0.00 60 1004.3
20230126191031 49 266 2.0 5.0 0.00 0.54 0.00 61 1004.2
20230126190016 48 223 2.0 4.0 0.00 0.55 0.00 62 1004.2
20230126185018 47 263 3.0 8.0 0.00 0.57 0.00 63 1004.2
20230126184020 47 246 1.0 3.0 0.00 0.58 0.00 65 1004.1
20230126183023 47 258 2.0 5.0 0.00 0.59 0.00 63 1003.9
20230126182026 47 247 2.0 4.0 0.00 0.60 0.00 65 1004.0
20230126181029 46 209 2.0 5.0 0.00 0.60 0.00 67 1004.1
20230126180052 46 280 2.0 6.0 0.00 0.60 0.00 66 1004.0
20230126175016 46 265 2.0 6.0 0.00 0.60 0.00 66 1004.1
20230126174019 46 217 3.0 7.0 0.00 0.60 0.00 66 1003.8
20230126173022 46 230 4.0 8.0 0.00 0.60 0.00 65 1004.0
20230126172024 47 223 2.0 6.0 0.00 0.60 0.00 64 1004.0
20230126171027 47 203 5.0 12.0 0.00 0.60 0.00 63 1004.0
20230126170030 46 240 3.0 7.0 0.00 0.60 0.00 65 1003.8
20230126165026 47 234 2.0 6.0 0.00 0.60 0.00 63 1003.9
20230126164016 48 203 4.0 11.0 0.00 0.60 0.00 61 1003.9
20230126163039 49 264 3.0 7.0 0.00 0.60 0.00 62 1004.2
20230126162017 48 239 3.0 7.0 0.00 0.60 0.00 63 1004.1
20230126161025 46 239 4.0 10.0 0.00 0.60 0.00 65 1004.1
20230126160028 46 249 4.0 8.0 0.00 0.60 0.00 65 1004.2
20230126155030 47 236 5.0 13.0 0.00 0.60 0.00 66 1004.2
20230126154036 47 230 3.0 7.0 0.00 0.60 0.00 67 1003.8
20230126153018 47 35 4.0 10.0 0.00 0.60 0.00 67 1003.6
20230126152021 47 225 1.0 3.0 0.00 0.60 0.00 69 1003.5
20230126151023 46 225 0.0 1.0 0.00 0.60 0.00 71 1003.3
20230126150026 46 259 3.0 11.0 0.00 0.60 0.00 71 1003.3
20230126145029 45 237 2.0 5.0 0.00 0.60 0.00 74 1003.0
20230126144031 45 249 3.0 8.0 0.00 0.60 0.00 75 1002.8
20230126143016 45 0.0 0.0 0.00 0.60 0.00 77 1002.6
20230126142019 44 198 3.0 7.0 0.00 0.60 0.00 78 1002.4